KD5FHA Weather Reports


time (UTC)temp
C
wind
direction
speed
KPH
gust
KPH
rain 1hr
cm
rain 24hr
cm
rain mn
cm
humidity
%
barometer
mb
20260509045110 21 176 3.2 3.2 0.00 0.33 0.33 91 1011.1
20260509044608 21 144 1.6 1.6 0.00 0.33 0.33 91 1011.2
20260509044105 21 136 0.0 3.2 0.00 0.33 0.33 91 1011.1
20260509043601 21 158 1.6 1.6 0.00 0.33 0.33 91 1011.4
20260509043057 21 50 0.0 1.6 0.00 0.33 0.33 91 1011.6
20260509042553 21 31 0.0 3.2 0.00 0.33 0.33 90 1011.7
20260509042049 21 50 1.6 3.2 0.00 0.33 0.33 90 1011.6
20260509041546 21 6 0.0 1.6 0.00 0.33 0.33 90 1011.4
20260509041044 21 36 3.2 3.2 0.00 0.33 0.33 89 1011.3
20260509040542 21 24 3.2 3.2 0.00 0.33 0.33 89 1011.3
20260509040039 22 87 1.6 3.2 0.00 0.33 0.33 88 1010.7
20260509035536 22 122 1.6 4.8 0.00 0.33 0.33 88 1010.8
20260509035032 22 113 1.6 3.2 0.00 0.33 0.33 87 1010.6
20260509034531 22 202 0.0 3.2 0.00 0.33 0.33 87 1010.8
20260509034027 22 89 0.0 3.2 0.00 0.33 0.33 86 1010.8
20260509033524 22 144 0.0 6.4 0.00 0.33 0.33 86 1010.7
20260509033016 22 110 1.6 3.2 0.00 0.33 0.33 86 1010.8
20260509032513 22 192 4.8 6.4 0.00 0.33 0.33 85 1010.6
20260509032010 22 128 1.6 3.2 0.00 0.33 0.33 85 1010.5
20260509031507 22 118 1.6 3.2 0.00 0.33 0.33 85 1010.6
20260509031005 22 112 0.0 3.2 0.00 0.33 0.33 85 1010.7
20260509030502 22 107 1.6 3.2 0.00 0.33 0.33 84 1010.6
20260509025959 22 120 0.0 3.2 0.00 0.33 0.33 84 1010.3
20260509025454 22 178 3.2 9.7 0.00 0.33 0.33 84 1010.0
20260509024950 22 159 4.8 8.0 0.00 0.33 0.33 84 1009.9
20260509024446 22 140 1.6 4.8 0.00 0.33 0.33 84 1010.0
20260509023943 22 132 0.0 1.6 0.00 0.33 0.33 84 1010.1
20260509023441 22 143 0.0 1.6 0.00 0.33 0.33 84 1010.0
20260509022937 22 142 0.0 3.2 0.00 0.33 0.33 84 1010.0
20260509022434 22 116 0.0 1.6 0.00 0.33 0.33 84 1010.3
20260509021932 22 117 0.0 1.6 0.00 0.33 0.33 84 1010.1
20260509021428 22 127 0.0 1.6 0.00 0.33 0.33 83 1010.0
20260509020926 22 102 0.0 3.2 0.00 0.33 0.33 83 1010.2
20260509020424 22 157 0.0 1.6 0.00 0.33 0.33 83 1010.0
20260509015921 22 136 0.0 1.6 0.00 0.33 0.33 83 1009.9
20260509015420 22 113 0.0 0.0 0.00 0.33 0.33 83 1010.0
20260509014915 22 103 0.0 0.0 0.00 0.33 0.33 82 1009.9
20260509014413 23 89 0.0 3.2 0.00 0.33 0.33 82 1009.8
20260509013909 23 182 1.6 3.2 0.00 0.33 0.33 82 1009.8
20260509013406 23 121 1.6 1.6 0.00 0.33 0.33 82 1009.5
20260509012901 23 157 0.0 3.2 0.00 0.33 0.33 82 1009.5
20260509012358 23 105 0.0 3.2 0.00 0.33 0.33 82 1009.6
20260509011856 23 89 0.0 3.2 0.00 0.33 0.33 82 1009.6
20260509011353 23 107 0.0 3.2 0.00 0.33 0.33 82 1009.3
20260509010851 23 152 0.0 1.6 0.00 0.33 0.33 82 1009.2
20260509010348 23 178 1.6 3.2 0.00 0.33 0.33 82 1009.2
20260509005845 23 124 0.0 1.6 0.00 0.33 0.33 81 1009.3
20260509005343 23 177 1.6 3.2 0.00 0.33 0.33 81 1009.1
20260509004843 23 141 0.0 1.6 0.00 0.33 0.33 81 1009.3
20260509004340 23 117 0.0 1.6 0.00 0.33 0.33 81 1009.3
20260509003837 23 156 0.0 1.6 0.00 0.33 0.33 81 1009.2
20260509003335 23 165 1.6 3.2 0.00 0.33 0.33 81 1009.0
20260509002832 23 102 0.0 3.2 0.00 0.33 0.33 80 1009.1
20260509002329 23 75 0.0 0.0 0.00 0.33 0.33 79 1009.1
20260509001827 23 95 0.0 0.0 0.00 0.33 0.33 79 1009.1
20260509001323 23 89 0.0 0.0 0.00 0.33 0.33 79 1009.0
20260509000821 23 50 0.0 0.0 0.00 0.33 0.33 79 1009.2
20260509000318 23 0 0.0 1.6 0.00 0.33 0.33 79 1009.1
20260508235814 23 62 0.0 1.6 0.00 0.33 0.33 78 1009.2
20260508235311 23 86 0.0 3.2 0.00 0.33 0.33 78 1009.3
20260508234809 23 141 0.0 1.6 0.00 0.33 0.33 79 1009.2
20260508234259 23 150 0.0 3.2 0.00 0.33 0.33 79 1009.2
20260508233758 23 154 0.0 3.2 0.00 0.33 0.33 79 1009.3
20260508233257 23 105 0.0 4.8 0.00 0.33 0.33 79 1009.2
20260508232753 23 131 3.2 3.2 0.00 0.33 0.33 78 1009.3
20260508232250 23 104 1.6 9.7 0.00 0.33 0.33 78 1009.3
20260508231748 23 119 1.6 3.2 0.00 0.33 0.33 77 1009.3
20260508231244 23 124 3.2 6.4 0.00 0.33 0.33 76 1009.2
20260508230741 24 95 1.6 9.7 0.00 0.33 0.33 76 1009.2
20260508230237 24 135 1.6 4.8 0.00 0.33 0.33 76 1009.3
20260508225735 23 101 0.0 9.7 0.00 0.33 0.33 77 1009.2
20260508225232 25 192 3.2 11.3 0.00 0.33 0.33 75 1009.2
20260508224729 25 179 6.4 6.4 0.00 0.33 0.33 75 1009.4
20260508224227 23 124 1.6 6.4 0.00 0.33 0.33 77 1009.3
20260508223724 23 113 4.8 6.4 0.00 0.33 0.33 76 1009.2
20260508223221 23 180 3.2 9.7 0.00 0.33 0.33 77 1009.2
20260508222719 23 139 1.6 16.1 0.00 0.33 0.33 77 1009.4
20260508222216 23 92 1.6 4.8 0.00 0.33 0.33 78 1009.4
20260508221712 23 195 3.2 11.3 0.00 0.33 0.33 78 1009.5
20260508221208 23 200 14.5 16.1 0.00 0.33 0.33 75 1009.5
20260508220704 23 96 1.6 4.8 0.00 0.33 0.33 79 1009.4
20260508220201 22 199 4.8 8.0 0.00 0.33 0.33 80 1009.6
20260508215658 22 197 4.8 6.4 0.00 0.33 0.33 79 1009.6
20260508215154 22 195 1.6 3.2 0.00 0.33 0.33 80 1010.1
20260508214651 21 165 0.0 6.4 0.00 0.33 0.33 83 1010.1
20260508214149 21 156 0.0 3.2 0.00 0.33 0.33 86 1010.2
20260508213645 21 195 3.2 3.2 0.00 0.33 0.33 86 1010.2
20260508213141 20 208 1.6 3.2 0.00 0.33 0.33 89 1010.3
20260508212638 20 157 0.0 3.2 0.00 0.33 0.33 91 1010.4
20260508212135 20 224 0.0 0.0 0.00 0.33 0.33 91 1010.6
20260508211635 20 13 0.0 4.8 0.00 0.33 0.33 91 1010.6
20260508211131 20 38 0.0 3.2 0.00 0.33 0.33 92 1010.6
20260508210628 20 290 3.2 6.4 0.00 0.33 0.33 92 1010.8
20260508210126 20 312 4.8 8.0 0.00 0.33 0.33 91 1010.8
20260508205623 19 318 4.8 11.3 0.00 0.33 0.33 92 1010.8
20260508205119 19 340 0.0 6.4 0.00 0.33 0.33 92 1010.4
20260508204615 18 356 3.2 14.5 0.18 0.33 0.33 93 1009.5
20260508204112 18 170 4.8 14.5 0.97 0.33 0.33 93 1009.0
20260508203608 18 85 3.2 6.4 1.07 0.28 0.28 92 1009.4
20260508203104 18 155 6.4 9.7 0.79 0.15 0.15 90 1010.7
20260508202600 19 180 4.8 8.0 0.53 0.10 0.10 87 1010.9
20260508202058 20 135 4.8 8.0 0.18 0.03 0.03 81 1011.3
20260508201554 20 138 3.2 9.7 0.05 0.00 0.00 78 1011.5
20260508201051 21 191 8.0 14.5 0.00 0.00 0.00 75 1011.7
20260508200548 21 172 3.2 16.1 0.00 0.00 0.00 74 1011.9
20260508200044 21 165 4.8 9.7 0.00 0.00 0.00 73 1012.2
20260508195541 21 218 4.8 17.7 0.00 0.00 0.00 73 1011.8
20260508195037 21 207 11.3 11.3 0.00 0.00 0.00 72 1012.0
20260508194534 21 202 8.0 16.1 0.00 0.00 0.00 73 1012.2
20260508194031 21 195 9.7 17.7 0.00 0.00 0.00 72 1011.9
20260508193527 21 192 9.7 16.1 0.00 0.00 0.00 71 1012.0
20260508193024 22 141 1.6 14.5 0.00 0.00 0.00 69 1012.1
20260508192521 22 204 6.4 14.5 0.00 0.00 0.00 67 1011.8
20260508192018 22 112 1.6 11.3 0.00 0.00 0.00 68 1011.9
20260508191515 22 168 3.2 4.8 0.00 0.00 0.00 68 1011.9
20260508191011 22 152 4.8 19.3 0.00 0.00 0.00 68 1012.1
20260508190509 21 95 0.0 17.7 0.00 0.00 0.00 68 1012.2
20260508190005 21 194 11.3 12.9 0.00 0.00 0.00 68 1012.4
20260508185502 21 171 6.4 9.7 0.00 0.00 0.00 68 1012.3
20260508185000 21 148 6.4 17.7 0.00 0.00 0.00 68 1012.4
20260508184457 22 187 6.4 9.7 0.00 0.00 0.00 66 1012.3
20260508183954 22 132 3.2 12.9 0.00 0.00 0.00 67 1012.4
20260508183450 22 189 9.7 14.5 0.00 0.00 0.00 66 1012.4
20260508182945 22 181 8.0 8.0 0.00 0.00 0.00 67 1012.4
20260508182443 22 152 3.2 9.7 0.00 0.00 0.00 68 1012.8
20260508181944 22 157 6.4 9.7 0.00 0.00 0.00 67 1012.8
20260508181440 22 93 0.0 4.8 0.00 0.00 0.00 66 1012.7
20260508180938 22 161 8.0 8.0 0.00 0.00 0.00 66 1012.9
20260508180435 23 183 3.2 11.3 0.00 0.00 0.00 65 1012.9
20260508175930 23 151 0.0 4.8 0.00 0.00 0.00 63 1012.9
20260508175427 25 145 3.2 6.4 0.00 0.00 0.00 62 1012.8
20260508174926 23 137 1.6 8.0 0.00 0.00 0.00 64 1012.7
20260508174423 23 143 3.2 8.0 0.00 0.00 0.00 65 1012.7
20260508173919 23 129 3.2 3.2 0.00 0.00 0.00 65 1013.0
20260508173416 22 134 3.2 8.0 0.00 0.00 0.00 66 1013.0
20260508172912 23 140 1.6 3.2 0.00 0.00 0.00 65 1013.4
20260508172410 22 136 0.0 3.2 0.00 0.00 0.00 66 1013.4
20260508171905 22 165 0.0 3.2 0.00 0.00 0.00 66 1013.5
20260508171402 22 89 0.0 6.4 0.00 0.00 0.00 67 1013.6
20260508170859 22 109 1.6 8.0 0.00 0.00 0.00 66 1013.7
20260508170357 22 129 3.2 3.2 0.00 0.00 0.00 66 1013.7
20260508165853 22 136 1.6 16.1 0.00 0.00 0.00 67 1013.7
20260508165351 23 131 0.0 6.4 0.00 0.00 0.00 64 1013.6
20260508164846 22 146 4.8 9.7 0.00 0.00 0.00 65 1013.6
20260508164344 23 133 0.0 4.8 0.00 0.00 0.00 63 1013.7
20260508163841 22 84 1.6 3.2 0.00 0.00 0.00 65 1013.7
20260508163339 22 34 3.2 4.8 0.00 0.00 0.00 64 1013.6
20260508162834 22 113 0.0 4.8 0.00 0.00 0.00 67 1014.0
20260508162332 22 98 3.2 4.8 0.00 0.00 0.00 64 1013.9
20260508161829 22 113 1.6 4.8 0.00 0.00 0.00 65 1013.9
20260508161326 22 108 0.0 3.2 0.00 0.00 0.00 66 1014.1
20260508160823 21 136 3.2 8.0 0.00 0.00 0.00 68 1014.4
20260508160322 21 72 1.6 3.2 0.00 0.00 0.00 70 1014.3
20260508155818 20 88 1.6 3.2 0.00 0.00 0.00 71 1014.5
20260508155315 20 106 0.0 3.2 0.00 0.00 0.00 72 1014.7
20260508154812 20 118 1.6 4.8 0.00 0.00 0.00 72 1014.7
20260508154309 19 98 1.6 3.2 0.00 0.00 0.00 73 1014.9
20260508153805 19 88 1.6 3.2 0.00 0.00 0.00 74 1015.1
20260508153303 18 108 1.6 3.2 0.00 0.00 0.00 74 1014.9
20260508152759 18 110 1.6 3.2 0.00 0.00 0.00 73 1015.0
20260508152255 18 121 3.2 6.4 0.00 0.00 0.00 73 1015.2
20260508151752 18 176 3.2 3.2 0.00 0.00 0.00 73 1015.2
20260508151249 18 104 0.0 3.2 0.00 0.00 0.00 73 1015.2
20260508150745 18 96 3.2 6.4 0.00 0.00 0.00 73 1015.0
20260508150242 18 182 3.2 3.2 0.00 0.00 0.00 73 1015.0
20260508145738 19 137 4.8 6.4 0.00 0.00 0.00 72 1015.2
20260508145234 19 105 1.6 3.2 0.00 0.00 0.00 72 1015.0
20260508144731 19 121 0.0 3.2 0.00 0.00 0.00 72 1015.0
20260508144230 19 86 1.6 4.8 0.00 0.00 0.00 72 1014.8
20260508143727 19 88 1.6 3.2 0.00 0.00 0.00 73 1014.9
20260508143224 19 100 0.0 3.2 0.00 0.00 0.00 73 1015.1
20260508142720 19 89 0.0 3.2 0.00 0.00 0.00 73 1015.0
20260508142217 19 94 1.6 3.2 0.00 0.00 0.00 72 1015.2
20260508141713 19 107 1.6 3.2 0.00 0.00 0.00 72 1015.1
20260508141211 18 79 1.6 3.2 0.00 0.00 0.00 72 1015.2
20260508140708 18 98 0.0 3.2 0.00 0.00 0.00 73 1015.2
20260508140205 18 98 1.6 3.2 0.00 0.00 0.00 72 1015.4
20260508135701 18 113 1.6 3.2 0.00 0.00 0.00 73 1015.2
20260508135201 18 89 0.0 4.8 0.00 0.00 0.00 74 1015.1
20260508134658 18 81 3.2 3.2 0.00 0.00 0.00 75 1014.9
20260508134155 18 103 1.6 3.2 0.00 0.00 0.00 72 1015.2
20260508133652 19 127 0.0 3.2 0.00 0.00 0.00 72 1015.1
20260508133149 19 81 3.2 3.2 0.00 0.00 0.00 73 1015.2
20260508132647 18 97 1.6 3.2 0.00 0.00 0.00 76 1015.0
20260508132144 17 112 1.6 3.2 0.00 0.00 0.00 79 1015.1
20260508131639 17 89 0.0 3.2 0.00 0.00 0.00 80 1015.1
20260508131136 17 102 3.2 3.2 0.00 0.00 0.00 80 1015.2
20260508130633 16 166 1.6 3.2 0.00 0.00 0.00 81 1015.4
20260508130131 16 71 1.6 3.2 0.00 0.00 0.00 82 1015.4
20260508125631 16 124 3.2 3.2 0.00 0.00 0.00 83 1015.6
20260508125128 16 127 0.0 3.2 0.00 0.00 0.00 84 1015.5
20260508124626 16 68 1.6 4.8 0.00 0.00 0.00 86 1015.6
20260508124123 15 64 1.6 4.8 0.00 0.00 0.00 88 1015.6
20260508123621 15 31 3.2 4.8 0.00 0.00 0.00 89 1015.6
20260508123119 15 359 3.2 6.4 0.00 0.00 0.00 91 1015.4
20260508122615 15 53 3.2 3.2 0.00 0.00 0.00 92 1015.2
20260508122112 15 63 3.2 4.8 0.00 0.00 0.00 92 1015.2
20260508121610 14 94 3.2 3.2 0.00 0.00 0.00 92 1015.2
20260508121108 14 329 0.0 4.8 0.00 0.00 0.00 92 1015.4
20260508120605 14 33 1.6 4.8 0.00 0.00 0.00 91 1015.0
20260508120103 14 7 3.2 4.8 0.00 0.00 0.00 91 1015.2
20260508115600 14 55 0.0 3.2 0.00 0.00 0.00 91 1015.1
20260508115057 14 85 0.0 3.2 0.00 0.00 0.00 90 1014.9
20260508114554 14 82 0.0 3.2 0.00 0.00 0.00 90 1015.2
20260508114050 14 121 0.0 3.2 0.00 0.00 0.00 90 1015.4
20260508113548 14 22 3.2 4.8 0.00 0.00 0.00 90 1015.1
20260508113046 14 86 0.0 3.2 0.00 0.00 0.00 90 1015.2
20260508112542 14 36 3.2 4.8 0.00 0.00 0.00 90 1015.5
20260508112039 14 153 0.0 3.2 0.00 0.00 0.00 89 1015.6
20260508111536 15 41 4.8 6.4 0.00 0.00 0.00 89 1015.4
20260508111032 15 354 3.2 4.8 0.00 0.00 0.00 88 1015.5
20260508110531 15 131 3.2 3.2 0.00 0.00 0.00 87 1015.4
20260508110026 15 92 1.6 4.8 0.00 0.00 0.00 87 1015.2
20260508105521 15 137 1.6 3.2 0.00 0.00 0.00 88 1014.9
20260508105019 15 171 3.2 6.4 0.00 0.00 0.00 89 1015.2
20260508104517 14 170 3.2 6.4 0.00 0.00 0.00 91 1015.2
20260508104013 14 250 0.0 4.8 0.00 0.00 0.00 93 1015.0
20260508103510 14 122 1.6 3.2 0.00 0.00 0.00 93 1014.9
20260508103007 14 179 3.2 4.8 0.00 0.00 0.00 93 1014.7
20260508102505 14 191 6.4 6.4 0.00 0.00 0.00 93 1014.9
20260508102002 14 179 3.2 4.8 0.00 0.00 0.00 92 1015.0
20260508101500 14 187 3.2 3.2 0.00 0.00 0.00 92 1014.8
20260508100956 14 157 1.6 4.8 0.00 0.00 0.00 93 1014.7
20260508100455 14 128 1.6 1.6 0.00 0.00 0.00 93 1014.7
20260508095951 14 150 0.0 0.0 0.00 0.00 0.00 93 1014.6
20260508095449 14 142 0.0 0.0 0.00 0.00 0.00 92 1014.8
20260508094945 14 80 0.0 3.2 0.00 0.00 0.00 92 1014.8
20260508094442 14 48 3.2 3.2 0.00 0.00 0.00 92 1014.8
20260508093939 14 42 3.2 3.2 0.00 0.00 0.00 91 1014.6
20260508093436 15 68 1.6 3.2 0.00 0.00 0.00 91 1014.9
20260508092934 15 86 1.6 3.2 0.00 0.00 0.00 91 1014.9
20260508092432 15 95 1.6 3.2 0.00 0.00 0.00 91 1014.6
20260508091930 15 184 3.2 3.2 0.00 0.00 0.00 91 1014.8
20260508091426 15 131 1.6 3.2 0.00 0.00 0.00 91 1014.7
20260508090923 15 101 1.6 3.2 0.00 0.00 0.00 91 1014.9
20260508090422 15 84 1.6 1.6 0.00 0.00 0.00 91 1014.9
20260508085917 15 126 0.0 1.6 0.00 0.00 0.00 91 1015.1
20260508085414 15 52 3.2 3.2 0.00 0.00 0.00 90 1014.9
20260508084911 15 27 3.2 3.2 0.00 0.00 0.00 90 1015.0
20260508084408 15 83 1.6 3.2 0.00 0.00 0.00 90 1014.8
20260508083906 15 103 0.0 1.6 0.00 0.00 0.00 90 1014.9
20260508083403 15 98 0.0 3.2 0.00 0.00 0.00 89 1014.8
20260508082902 15 98 1.6 3.2 0.00 0.00 0.00 89 1014.9
20260508082400 15 72 1.6 3.2 0.00 0.00 0.00 89 1015.1
20260508081858 15 34 3.2 3.2 0.00 0.00 0.00 88 1015.1
20260508081354 15 89 0.0 1.6 0.00 0.00 0.00 88 1015.4
20260508080851 15 89 1.6 1.6 0.00 0.00 0.00 87 1015.5
20260508080349 15 89 0.0 1.6 0.00 0.00 0.00 87 1015.7
20260508075845 15 84 1.6 1.6 0.00 0.00 0.00 86 1015.9
20260508075342 16 102 0.0 1.6 0.00 0.00 0.00 86 1016.2
20260508074840 16 89 1.6 1.6 0.00 0.00 0.00 85 1016.1
20260508074337 16 76 0.0 1.6 0.00 0.00 0.00 86 1016.0
20260508073834 15 136 0.0 1.6 0.00 0.00 0.00 86 1016.3
20260508073332 15 303 0.0 1.6 0.00 0.00 0.00 87 1016.2
20260508072828 15 37 0.0 1.6 0.00 0.00 0.00 88 1016.3
20260508072325 15 40 0.0 3.2 0.00 0.00 0.00 89 1016.1
20260508071822 15 32 0.0 3.2 0.00 0.00 0.00 89 1016.0
20260508071320 15 25 3.2 3.2 0.00 0.00 0.00 89 1016.0
20260508070817 15 29 3.2 3.2 0.00 0.00 0.00 89 1015.8
20260508070316 15 25 1.6 3.2 0.00 0.00 0.00 89 1015.9
20260508065813 15 36 1.6 3.2 0.00 0.00 0.00 89 1015.9
20260508065311 15 27 0.0 0.0 0.00 0.00 0.00 89 1015.7
20260508064809 15 139 0.0 0.0 0.00 0.00 0.00 89 1016.0
20260508064306 15 39 0.0 3.2 0.00 0.00 0.00 89 1015.9
20260508063803 15 66 0.0 1.6 0.00 0.00 0.00 89 1016.1
20260508063302 15 55 1.6 3.2 0.00 0.00 0.00 89 1016.1
20260508062758 15 49 1.6 3.2 0.00 0.00 0.00 89 1016.2
20260508062256 15 41 1.6 3.2 0.00 0.00 0.00 89 1016.2
20260508061752 15 70 0.0 1.6 0.00 0.00 0.00 89 1016.1
20260508061249 15 176 1.6 3.2 0.00 0.00 0.00 89 1016.2
20260508060746 15 146 0.0 1.6 0.00 0.00 0.00 89 1016.4
20260508060244 15 69 0.0 1.6 0.00 0.00 0.00 88 1016.6
20260508055739 15 156 0.0 1.6 0.00 0.00 0.00 88 1016.6
20260508055237 15 155 0.0 1.6 0.00 0.00 0.00 88 1016.6
20260508054733 15 172 1.6 1.6 0.00 0.00 0.00 88 1016.7
20260508054231 15 49 0.0 1.6 0.00 0.00 0.00 87 1016.7
20260508053728 15 161 1.6 3.2 0.00 0.00 0.00 87 1016.6
20260508053225 15 154 0.0 1.6 0.00 0.00 0.00 87 1016.5
20260508052722 15 147 0.0 0.0 0.00 0.00 0.00 86 1016.8
20260508052219 15 172 1.6 3.2 0.00 0.00 0.00 86 1016.8
20260508051715 15 148 0.0 1.6 0.00 0.00 0.00 86 1016.8
20260508051211 15 166 1.6 3.2 0.00 0.00 0.00 86 1016.7
20260508050708 15 28 0.0 1.6 0.00 0.00 0.00 86 1016.6
20260508050205 15 148 0.0 0.0 0.00 0.00 0.00 86 1016.8
20260508045700 15 36 0.0 0.0 0.00 0.00 0.00 85 1016.4